Home > Weather > Terre Haute > Past weeks

Flag for USA Weather for the Past 2 Weeks in Terre Haute, Indiana, USA

Now
59 °F

Scattered clouds.


Feels Like: 56 °F
Forecast: 47 / 57 °F
Wind: 14 mph from North

Location: Terre Haute International Airport - Hulman Field

Current Time: May 4, 2016 at 1:31:32 PM

Latest Report: May 4, 2016 at 12:53 PM


Visibility: 10 mi

Pressure: 29.74 "Hg

Humidity: 60%

Dew Point: 45 °F

Location of Terre HauteLocation

Historic Weather in Terre Haute — Graph

°F

Terre Haute Temperature Yesterday

Maximum temperature yesterday: 65 °F (at 5:53 PM)
Minimum temperature yesterday: 50 °F (at 6:53 AM)
Average temperature yesterday: 56 °F

High & Low Weather Summary for the Past Weeks

 TemperatureHumidityPressure
High81 °F (Apr 26, 1:53 PM)97% (Apr 21, 4:53 AM)30.19 "Hg (Apr 21, 4:53 AM)
Low44 °F (Apr 24, 6:53 AM)32% (Apr 19, 2:53 PM)29.68 "Hg (May 4, 7:53 AM)
Average61 °F75%29.91 "Hg
* Reported Apr 19 11:53 AM — May 4 11:53 AM, Terre Haute, Weather by CustomWeather, © 2016

Note: Actual official high and low records may vary slightly from our data, if they occured in-between our weather recording intervals... More about our weather records

Advertising

Terre Haute Weather History for the Previous 24 Hours

Scroll right to see more
 ConditionsComfort  
Time TempWeatherWind HumidityBarometerVisibility
11:53 AM
Wed, May 4
58 °FBroken clouds.15 mph67%29.72 "Hg10 mi
11:03 AM56 °FBroken clouds.12 mph70%29.71 "Hg10 mi
10:02 AM52 °FMostly cloudy.7 mph89%29.71 "Hg10 mi
8:53 AM51 °FPartly sunny.9 mph89%29.69 "Hg10 mi
7:53 AM50 °FFog.13 mph93%29.68 "Hg3 mi
6:53 AM51 °FLight rain. Fog.8 mph86%29.72 "Hg5 mi
5:53 AM53 °FLight rain. Mostly cloudy.10 mph69%29.70 "Hg10 mi
4:53 AM52 °FClear.10 mph72%29.71 "Hg10 mi
3:53 AM53 °FClear.9 mph69%29.74 "Hg10 mi
2:53 AM52 °FClear.8 mph75%29.77 "Hg10 mi
1:53 AM52 °FClear.8 mph77%29.80 "Hg10 mi
12:53 AM53 °FClear.8 mph74%29.82 "Hg10 mi
11:53 PM
Tue, May 3
54 °FPassing clouds.7 mph72%29.84 "Hg10 mi
10:53 PM54 °FPassing clouds.7 mph72%29.86 "Hg10 mi
9:53 PM58 °FOvercast.6 mph60%29.87 "Hg10 mi
8:53 PM59 °FMostly cloudy.6 mph58%29.87 "Hg10 mi
7:53 PM62 °FPartly sunny.6 mph44%29.87 "Hg10 mi
6:53 PM63 °FBroken clouds.6 mph41%29.87 "Hg10 mi
5:53 PM65 °FPassing clouds.9 mph37%29.88 "Hg10 mi
4:53 PM64 °FOvercast.7 mph41%29.90 "Hg10 mi
3:53 PM63 °FPassing clouds.6 mph40%29.92 "Hg10 mi
2:53 PM62 °FPartly sunny.8 mph44%29.93 "Hg10 mi
1:53 PM60 °FMore clouds than sun.13 mph52%29.95 "Hg10 mi
Weather by CustomWeather, © 2016

See weather overviewHow to use our weather pages